• In Hungary
  • List of Countries
  • For 7 days
  • Water Temperature
  • Satellite Maps
  • Weather Map
  • News
  • Weather Widgets
  • user-avatar
    Login

    Hourly Weather Bastia

    Today, 26 September, Wednesday

    Time Temperature Precipitation Wind Pressure Humidity
    00:00 +11°C° 0 mm 4 mps 755 mmHg 61%
    01:00 +10°C° 0 mm 5 mps 755 mmHg 63%
    02:00 +11°C° 0 mm 4 mps 755 mmHg 64%
    03:00 +10°C° 0 mm 4 mps 755 mmHg 64%
    04:00 +10°C° 0 mm 4 mps 755 mmHg 65%
    05:00 +10°C° 0 mm 4 mps 755 mmHg 64%
    06:00 +10°C° 0 mm 4 mps 756 mmHg 62%
    07:00 +10°C° 0 mm 4 mps 756 mmHg 61%
    08:00 +12°C° 0 mm 5 mps 756 mmHg 54%
    09:00 +14°C° 0 mm 5 mps 756 mmHg 47%
    10:00 +16°C° 0 mm 6 mps 757 mmHg 40%
    11:00 +17°C° 0 mm 5 mps 757 mmHg 37%
    12:00 +19°C° 0 mm 5 mps 756 mmHg 35%
    13:00 +20°C° 0 mm 5 mps 756 mmHg 33%
    14:00 +20°C° 0 mm 5 mps 756 mmHg 34%
    15:00 +20°C° 0 mm 4 mps 756 mmHg 35%
    16:00 +19°C° 0 mm 4 mps 755 mmHg 36%
    17:00 +17°C° 0 mm 4 mps 755 mmHg 43%
    18:00 +14°C° 0 mm 3 mps 755 mmHg 51%
    19:00 +13°C° 0 mm 2 mps 755 mmHg 58%
    20:00 +12°C° 0 mm 2 mps 755 mmHg 60%
    21:00 +10°C° 0 mm 2 mps 755 mmHg 62%
    22:00 +10°C° 0 mm 2 mps 755 mmHg 64%
    23:00 +10°C° 0 mm 2 mps 755 mmHg 63%

    Tomorrow, 27 September, Thursday

    Time Temperature Precipitation Wind Pressure Humidity
    00:00 +9°C° 0 mm 2 mps 755 mmHg 62%
    01:00 +9°C° 0 mm 2 mps 755 mmHg 61%
    02:00 +9°C° 0 mm 2 mps 755 mmHg 60%
    03:00 +9°C° 0 mm 2 mps 754 mmHg 59%
    04:00 +10°C° 0 mm 1 mps 754 mmHg 58%
    05:00 +11°C° 0 mm 1 mps 754 mmHg 57%
    06:00 +11°C° 0 mm 1 mps 754 mmHg 57%
    07:00 +12°C° 0 mm 1 mps 754 mmHg 57%
    08:00 +15°C° 0 mm 2 mps 754 mmHg 51%
    09:00 +18°C° 0 mm 2 mps 754 mmHg 45%
    10:00 +21°C° 0 mm 2 mps 754 mmHg 39%
    11:00 +23°C° 0 mm 2 mps 753 mmHg 36%
    12:00 +25°C° 0 mm 3 mps 753 mmHg 33%
    13:00 +26°C° 0 mm 3 mps 752 mmHg 29%
    14:00 +26°C° 0 mm 3 mps 752 mmHg 31%
    15:00 +26°C° 0 mm 3 mps 751 mmHg 34%
    16:00 +25°C° 0 mm 3 mps 750 mmHg 36%
    17:00 +22°C° 0 mm 3 mps 750 mmHg 44%
    18:00 +19°C° 0 mm 2 mps 749 mmHg 53%
    19:00 +16°C° 0 mm 2 mps 749 mmHg 62%
    20:00 +16°C° 0 mm 2 mps 749 mmHg 63%
    21:00 +15°C° 0 mm 2 mps 749 mmHg 64%
    22:00 +14°C° 0 mm 2 mps 748 mmHg 65%
    23:00 +14°C° 0 mm 2 mps 748 mmHg 61%

    Day after tomorrow, 28 September, Friday

    Time Temperature Precipitation Wind Pressure Humidity
    00:00 +14°C° 0 mm 1 mps 748 mmHg 56%
    01:00 +13°C° 0 mm 1 mps 747 mmHg 52%
    02:00 +13°C° 0 mm 1 mps 747 mmHg 51%
    03:00 +13°C° 0 mm 1 mps 746 mmHg 50%
    04:00 +13°C° 0 mm 1 mps 746 mmHg 48%
    05:00 +13°C° 0 mm 1 mps 745 mmHg 48%
    06:00 +14°C° 0 mm 1 mps 745 mmHg 48%
    07:00 +14°C° 0 mm 1 mps 745 mmHg 48%
    08:00 +18°C° 0 mm 1 mps 745 mmHg 43%
    09:00 +20°C° 0 mm 2 mps 745 mmHg 38%
    10:00 +24°C° 0 mm 2 mps 745 mmHg 33%
    11:00 +25°C° 0 mm 2 mps 745 mmHg 31%
    12:00 +27°C° 0 mm 2 mps 744 mmHg 29%
    13:00 +28°C° 0 mm 2 mps 744 mmHg 26%
    14:00 +28°C° 0 mm 2 mps 743 mmHg 28%
    15:00 +27°C° 0 mm 2 mps 743 mmHg 29%
    16:00 +27°C° 0 mm 2 mps 742 mmHg 31%
    17:00 +25°C° 0 mm 2 mps 742 mmHg 38%
    18:00 +21°C° 0 mm 2 mps 742 mmHg 45%
    19:00 +19°C° 0 mm 1 mps 742 mmHg 52%
    20:00 +19°C° 0 mm 1 mps 742 mmHg 54%
    21:00 +18°C° 0 mm 1 mps 742 mmHg 56%
    22:00 +16°C° 0 mm 1 mps 742 mmHg 57%
    23:00 +16°C° 0 mm 1 mps 742 mmHg 57%

    29 September, Saturday

    Time Temperature Precipitation Wind Pressure Humidity
    00:00 +16°C° 0 mm 1 mps 742 mmHg 57%
    01:00 +15°C° 0 mm 1 mps 742 mmHg 56%
    02:00 +15°C° 0 mm 1 mps 741 mmHg 56%
    03:00 +15°C° 0 mm 1 mps 741 mmHg 56%
    04:00 +15°C° 0 mm 1 mps 741 mmHg 55%
    05:00 +15°C° 0 mm 1 mps 741 mmHg 55%
    06:00 +15°C° 0 mm 1 mps 741 mmHg 54%
    07:00 +16°C° 0 mm 1 mps 741 mmHg 54%
    08:00 +20°C° 0 mm 1 mps 741 mmHg 49%
    09:00 +21°C° 0 mm 2 mps 742 mmHg 43%
    10:00 +25°C° 0 mm 2 mps 742 mmHg 38%
    11:00 +26°C° 0 mm 2 mps 742 mmHg 37%
    12:00 +27°C° 0 mm 3 mps 742 mmHg 36%
    13:00 +28°C° 0 mm 3 mps 741 mmHg 35%
    14:00 +27°C° 0 mm 4 mps 741 mmHg 38%
    15:00 +27°C° 0 mm 4 mps 741 mmHg 40%
    16:00 +26°C° 0 mm 4 mps 741 mmHg 43%
    17:00 +23°C° 0 mm 4 mps 742 mmHg 51%
    18:00 +21°C° 0 mm 4 mps 742 mmHg 60%
    19:00 +19°C° 0 mm 3 mps 743 mmHg 68%
    20:00 +18°C° 0 mm 3 mps 743 mmHg 71%
    21:00 +18°C° 0 mm 3 mps 744 mmHg 74%
    22:00 +17°C° 0 mm 3 mps 744 mmHg 78%
    23:00 +17°C° 0 mm 3 mps 744 mmHg 80%

    30 September, Sunday

    Time Temperature Precipitation Wind Pressure Humidity
    00:00 +16°C° 0 mm 3 mps 744 mmHg 82%
    01:00 +16°C° 0 mm 3 mps 744 mmHg 84%
    02:00 +14°C° 0 mm 3 mps 744 mmHg 85%
    03:00 +14°C° 0 mm 3 mps 744 mmHg 86%
    04:00 +14°C° 0 mm 3 mps 744 mmHg 87%
    05:00 +14°C° 0 mm 3 mps 744 mmHg 85%
    06:00 +14°C° 0 mm 3 mps 744 mmHg 83%
    07:00 +14°C° 0 mm 3 mps 744 mmHg 81%
    08:00 +16°C° 0 mm 3 mps 744 mmHg 71%
    09:00 +18°C° 0 mm 4 mps 744 mmHg 60%
    10:00 +20°C° 0 mm 5 mps 745 mmHg 49%
    11:00 +21°C° 0 mm 5 mps 744 mmHg 45%
    12:00 +21°C° 0 mm 5 mps 744 mmHg 42%
    13:00 +22°C° 0 mm 5 mps 744 mmHg 39%
    14:00 +21°C° 0 mm 5 mps 744 mmHg 42%
    15:00 +20°C° 0 mm 5 mps 743 mmHg 45%
    16:00 +20°C° 0 mm 5 mps 743 mmHg 48%
    17:00 +18°C° 0 mm 4 mps 743 mmHg 56%
    18:00 +16°C° 0 mm 3 mps 743 mmHg 64%
    19:00 +13°C° 0 mm 3 mps 743 mmHg 71%
    20:00 +14°C° 0 mm 2 mps 743 mmHg 74%
    21:00 +13°C° 0 mm 2 mps 743 mmHg 77%
    22:00 +13°C° 0 mm 2 mps 743 mmHg 79%
    23:00 +12°C° 0 mm 2 mps 743 mmHg 80%

    1 October, Monday

    Time Temperature Precipitation Wind Pressure Humidity
    00:00 +12°C° 0 mm 2 mps 743 mmHg 81%
    01:00 +12°C° 0 mm 1 mps 742 mmHg 82%
    02:00 +12°C° 0 mm 1 mps 742 mmHg 83%
    03:00 +12°C° 0 mm 1 mps 742 mmHg 83%
    04:00 +11°C° 0 mm 1 mps 742 mmHg 84%
    05:00 +12°C° 0 mm 1 mps 741 mmHg 83%
    06:00 +12°C° 0 mm 1 mps 741 mmHg 81%
    07:00 +13°C° 0 mm 1 mps 741 mmHg 79%
    08:00 +15°C° 0 mm 1 mps 741 mmHg 70%
    09:00 +19°C° 0 mm 1 mps 742 mmHg 60%
    10:00 +20°C° 0 mm 0 mps 742 mmHg 51%
    11:00 +23°C° 0 mm 1 mps 741 mmHg 47%
    12:00 +24°C° 0 mm 1 mps 741 mmHg 43%
    13:00 +25°C° 0 mm 1 mps 741 mmHg 38%
    14:00 +24°C° 0 mm 2 mps 740 mmHg 38%
    15:00 +24°C° 0 mm 2 mps 740 mmHg 38%
    16:00 +24°C° 0 mm 2 mps 739 mmHg 37%
    17:00 +21°C° 0 mm 2 mps 739 mmHg 45%
    18:00 +19°C° 0 mm 2 mps 739 mmHg 52%
    19:00 +16°C° 0 mm 2 mps 739 mmHg 60%
    20:00 +16°C° 0 mm 2 mps 739 mmHg 64%
    21:00 +15°C° 0 mm 2 mps 738 mmHg 68%
    22:00 +14°C° 0 mm 2 mps 738 mmHg 71%
    23:00 +14°C° 0 mm 2 mps 737 mmHg 73%
    Show more